• In Belarus
  • List of Countries
  • For 7 days
  • Water Temperature
  • Weather Map
  • Weather Widgets
  • user-avatar
    Login

    Hourly Weather Ichichali

    Today, 23 February, Sunday

    Time Temperature Precipitation Wind Pressure Humidity
    00:00 0°C° 0 mm 1 mps 623 mmHg 78%
    01:00 -1°C° 0 mm 1 mps 623 mmHg 77%
    02:00 -1°C° 0 mm 1 mps 623 mmHg 76%
    03:00 -1°C° 0 mm 1 mps 622 mmHg 73%
    04:00 -1°C° 0 mm 1 mps 622 mmHg 71%
    05:00 -1°C° 0 mm 1 mps 622 mmHg 70%
    06:00 -1°C° 0 mm 1 mps 622 mmHg 68%
    07:00 0°C° 0 mm 1 mps 623 mmHg 67%
    08:00 +1°C° 0 mm 1 mps 623 mmHg 67%
    09:00 +2°C° 0 mm 1 mps 624 mmHg 67%
    10:00 +3°C° 0 mm 1 mps 624 mmHg 67%
    11:00 +3°C° 0 mm 1 mps 624 mmHg 67%
    12:00 +4°C° 0 mm 1 mps 624 mmHg 68%
    13:00 +4°C° 0 mm 1 mps 624 mmHg 70%
    14:00 +4°C° 0 mm 1 mps 623 mmHg 73%
    15:00 +3°C° 0 mm 2 mps 623 mmHg 75%
    16:00 +2°C° 0 mm 2 mps 623 mmHg 80%
    17:00 +1°C° 0 mm 1 mps 622 mmHg 85%
    18:00 0°C° 0 mm 1 mps 622 mmHg 89%
    19:00 0°C° 0 mm 1 mps 622 mmHg 89%
    20:00 0°C° 0 mm 1 mps 622 mmHg 89%
    21:00 0°C° 0 mm 1 mps 622 mmHg 89%
    22:00 -1°C° 0 mm 1 mps 622 mmHg 87%
    23:00 -1°C° 0 mm 1 mps 622 mmHg 86%

    Tomorrow, 24 February, Monday

    Time Temperature Precipitation Wind Pressure Humidity
    00:00 -1°C° 0 mm 1 mps 622 mmHg 85%
    01:00 -2°C° 0 mm 1 mps 621 mmHg 82%
    02:00 -2°C° 0 mm 1 mps 621 mmHg 80%
    03:00 -2°C° 0 mm 1 mps 620 mmHg 78%
    04:00 -2°C° 0 mm 1 mps 620 mmHg 77%
    05:00 -2°C° 0 mm 1 mps 620 mmHg 76%
    06:00 -2°C° 0 mm 1 mps 620 mmHg 75%
    07:00 -1°C° 0 mm 1 mps 620 mmHg 72%
    08:00 0°C° 0 mm 1 mps 620 mmHg 68%
    09:00 +1°C° 0 mm 1 mps 620 mmHg 65%
    10:00 +2°C° 0 mm 1 mps 620 mmHg 62%
    11:00 +3°C° 0 mm 1 mps 619 mmHg 59%
    12:00 +4°C° 0 mm 1 mps 619 mmHg 56%
    13:00 +4°C° 0 mm 2 mps 618 mmHg 54%
    14:00 +4°C° 0 mm 2 mps 618 mmHg 53%
    15:00 +5°C° 0 mm 2 mps 617 mmHg 51%
    16:00 +3°C° 0 mm 2 mps 616 mmHg 56%
    17:00 +2°C° 0 mm 2 mps 615 mmHg 60%
    18:00 +1°C° 0 mm 2 mps 614 mmHg 65%
    19:00 0°C° 0 mm 3 mps 614 mmHg 66%
    20:00 -1°C° 0 mm 3 mps 614 mmHg 66%
    21:00 -1°C° 0 mm 3 mps 614 mmHg 67%
    22:00 -1°C° 0 mm 3 mps 613 mmHg 67%
    23:00 -1°C° 0 mm 3 mps 612 mmHg 67%

    Day after tomorrow, 25 February, Tuesday

    Time Temperature Precipitation Wind Pressure Humidity
    00:00 -2°C° 0 mm 3 mps 612 mmHg 67%
    01:00 -2°C° 0 mm 3 mps 612 mmHg 67%
    02:00 -2°C° 0 mm 3 mps 612 mmHg 66%
    03:00 -2°C° 0 mm 3 mps 612 mmHg 66%
    04:00 -2°C° 0 mm 3 mps 612 mmHg 68%
    05:00 -4°C° 0 mm 3 mps 613 mmHg 71%
    06:00 -4°C° 0 mm 3 mps 613 mmHg 73%
    07:00 -4°C° 0.2 mm 3 mps 614 mmHg 75%
    08:00 -3°C° 0.2 mm 2 mps 615 mmHg 77%
    09:00 -2°C° 0.2 mm 2 mps 615 mmHg 79%
    10:00 -2°C° 0 mm 2 mps 616 mmHg 77%
    11:00 -1°C° 0 mm 2 mps 616 mmHg 74%
    12:00 +1°C° 0 mm 2 mps 616 mmHg 71%
    13:00 -1°C° 0.8 mm 2 mps 616 mmHg 76%
    14:00 -2°C° 0.8 mm 2 mps 616 mmHg 80%
    15:00 -3°C° 0.8 mm 2 mps 615 mmHg 84%
    16:00 -4°C° 0.9 mm 2 mps 616 mmHg 85%
    17:00 -5°C° 0.9 mm 3 mps 616 mmHg 86%
    18:00 -6°C° 0.9 mm 3 mps 617 mmHg 88%
    19:00 -7°C° 0.4 mm 3 mps 617 mmHg 87%
    20:00 -7°C° 0.4 mm 3 mps 618 mmHg 87%
    21:00 -8°C° 0.4 mm 3 mps 619 mmHg 86%
    22:00 -9°C° 0.1 mm 3 mps 619 mmHg 82%
    23:00 -9°C° 0.1 mm 3 mps 619 mmHg 77%

    26 February, Wednesday

    Time Temperature Precipitation Wind Pressure Humidity
    00:00 -10°C° 0.1 mm 3 mps 619 mmHg 72%
    01:00 -10°C° 0 mm 3 mps 619 mmHg 67%
    02:00 -9°C° 0 mm 2 mps 619 mmHg 62%
    03:00 -9°C° 0 mm 2 mps 619 mmHg 57%
    04:00 -9°C° 0 mm 2 mps 619 mmHg 55%
    05:00 -9°C° 0 mm 2 mps 620 mmHg 53%
    06:00 -8°C° 0 mm 1 mps 620 mmHg 50%
    07:00 -7°C° 0 mm 1 mps 620 mmHg 48%
    08:00 -4°C° 0 mm 1 mps 621 mmHg 47%
    09:00 -3°C° 0 mm 1 mps 622 mmHg 45%
    10:00 -2°C° 0 mm 1 mps 622 mmHg 43%
    11:00 -1°C° 0 mm 1 mps 622 mmHg 42%
    12:00 +1°C° 0 mm 1 mps 622 mmHg 41%
    13:00 +1°C° 0 mm 1 mps 622 mmHg 44%
    14:00 +2°C° 0 mm 1 mps 622 mmHg 46%
    15:00 +2°C° 0 mm 1 mps 622 mmHg 49%
    16:00 +1°C° 0 mm 1 mps 622 mmHg 53%
    17:00 -2°C° 0 mm 2 mps 621 mmHg 58%
    18:00 -3°C° 0 mm 2 mps 621 mmHg 62%
    19:00 -4°C° 0 mm 2 mps 620 mmHg 61%
    20:00 -5°C° 0 mm 3 mps 620 mmHg 59%
    21:00 -5°C° 0 mm 3 mps 620 mmHg 57%
    22:00 -5°C° 0 mm 3 mps 620 mmHg 53%
    23:00 -5°C° 0 mm 3 mps 620 mmHg 49%

    27 February, Thursday

    Time Temperature Precipitation Wind Pressure Humidity
    00:00 -5°C° 0 mm 3 mps 619 mmHg 45%
    01:00 -4°C° 0 mm 3 mps 619 mmHg 43%
    02:00 -4°C° 0 mm 3 mps 619 mmHg 41%
    03:00 -3°C° 0 mm 2 mps 619 mmHg 39%
    04:00 -2°C° 0 mm 2 mps 619 mmHg 38%
    05:00 -2°C° 0 mm 2 mps 619 mmHg 36%
    06:00 -1°C° 0 mm 2 mps 619 mmHg 35%
    07:00 +1°C° 0 mm 2 mps 620 mmHg 36%
    08:00 +3°C° 0 mm 2 mps 620 mmHg 38%
    09:00 +4°C° 0 mm 2 mps 621 mmHg 40%
    10:00 +6°C° 0 mm 2 mps 621 mmHg 42%
    11:00 +7°C° 0 mm 2 mps 621 mmHg 44%
    12:00 +9°C° 0 mm 1 mps 622 mmHg 46%
    13:00 +10°C° 0 mm 1 mps 621 mmHg 46%
    14:00 +10°C° 0 mm 1 mps 621 mmHg 47%
    15:00 +10°C° 0 mm 1 mps 621 mmHg 47%
    16:00 +8°C° 0 mm 2 mps 620 mmHg 47%
    17:00 +6°C° 0 mm 2 mps 619 mmHg 46%
    18:00 +4°C° 0 mm 2 mps 619 mmHg 46%
    19:00 +3°C° 0 mm 3 mps 619 mmHg 44%
    20:00 +3°C° 0 mm 3 mps 618 mmHg 41%
    21:00 +2°C° 0 mm 3 mps 618 mmHg 39%
    22:00 +2°C° 0 mm 3 mps 618 mmHg 37%
    23:00 +2°C° 0 mm 3 mps 618 mmHg 36%

    28 February, Friday

    Time Temperature Precipitation Wind Pressure Humidity
    00:00 +2°C° 0 mm 3 mps 618 mmHg 34%
    01:00 +2°C° 0 mm 3 mps 617 mmHg 33%
    02:00 +2°C° 0 mm 3 mps 617 mmHg 32%
    03:00 +2°C° 0 mm 3 mps 616 mmHg 31%
    04:00 +2°C° 0 mm 3 mps 616 mmHg 31%
    05:00 +2°C° 0 mm 3 mps 616 mmHg 30%
    06:00 +1°C° 0 mm 3 mps 615 mmHg 29%
    07:00 +4°C° 0 mm 2 mps 616 mmHg 31%
    08:00 +5°C° 0 mm 2 mps 616 mmHg 32%
    09:00 +6°C° 0 mm 2 mps 616 mmHg 33%
    10:00 +7°C° 0 mm 2 mps 617 mmHg 34%
    11:00 +9°C° 0 mm 2 mps 617 mmHg 34%
    12:00 +10°C° 0 mm 2 mps 617 mmHg 35%
    13:00 +11°C° 0 mm 1 mps 617 mmHg 35%
    14:00 +11°C° 0 mm 1 mps 617 mmHg 36%
    15:00 +12°C° 0 mm 1 mps 616 mmHg 37%
    16:00 +9°C° 0 mm 2 mps 616 mmHg 40%
    17:00 +7°C° 0 mm 2 mps 615 mmHg 43%
    18:00 +5°C° 0 mm 2 mps 615 mmHg 46%
    19:00 +4°C° 0 mm 2 mps 615 mmHg 47%
    20:00 +3°C° 0 mm 2 mps 615 mmHg 48%
    21:00 +2°C° 0 mm 2 mps 615 mmHg 49%
    22:00 +1°C° 0 mm 3 mps 615 mmHg 55%
    23:00 0°C° 0 mm 3 mps 616 mmHg 61%
    Show more